Location: Kawakawa
(35.3830°S, 174.0670°E)
Time: 22:39:54
(UTC+13:00)

Explorer 7 - Pass Details

Date: 19 December 2019
Orbit: 485 x 679 km, 50.3° (Epoch: 28 January)

Event Time Altitude Azimuth Distance (km) Brightness Sun altitude
Rises 07:00:11 0° 220° (SW) 2,585 10.1 9.5°
Reaches altitude 10° 07:03:01 10° 198° (SSW) 1,694 9.4 10.0°
Maximum altitude 07:05:32 17° 157° (SSE) 1,337 9.6 10.5°
Drops below altitude 10° 07:08:02 10° 116° (ESE) 1,699 12.5 10.9°
Sets 07:10:52 0° 94° (E) 2,595 11.9 11.5°
